Flag for Saint Vincent and Grenadines Weather past 2 weeks in Kingstown, Saint Vincent and Grenadines

Now
81 °F

Passing clouds.


Feels Like: 85 °F
Forecast: 80 / 86 °F
Wind: No wind

Location: Arnos Vale

Current Time: Aug 2, 2015 at 2:47:53 AM

Latest Report: Aug 1, 2015 at 11:00 PM


Visibility: N/A

Pressure: 29.98 "Hg

Humidity: 79%

Dew point: 73 °F

Location of KingstownLocation

Historic Weather in Kingstown — Graph

°F

Kingstown temperature yesterday

Maximum temperature yesterday: 86 °F (at 9:00 AM)
Minimum temperature yesterday: 81 °F (at 12:00 AM)
Average temperature yesterday: 84 °F

Past Weeks' High & Low Weather Summary

 TemperatureHumidityPressure
High88 °F (Jul 19, 3:00 PM)94% (Jul 20, 5:00 PM)30.09 "Hg (Jul 20, 5:00 PM)
Low75 °F (Jul 31, 1:00 PM)59% (Jul 18, 10:00 AM)26.72 "Hg (Jul 30, 3:00 PM)
Average83 °F75%29.99 "Hg
* Reported Jul 17 11:00 PM — Aug 1 11:00 PM, Kingstown, Weather by CustomWeather, © 2015

Note: Actual official high and low records may vary slightly from our data, if they occured in-between our weather recording intervals... More about our weather records

Advertising

Kingstown weather history for previous 24 hours

 ConditionsComfort  
Time TempWeatherWind HumidityBarometerVisibility
11:00 PM
Sat, Aug 1
81 °FPassing clouds.No wind79%29.98 "HgN/A
10:00 PM81 °FPassing clouds.7 mph79%29.98 "HgN/A
9:00 PM81 °FPassing clouds.7 mph79%29.95 "HgN/A
8:00 PM82 °FPassing clouds.7 mph70%29.95 "HgN/A
7:00 PM82 °FPassing clouds.9 mph74%29.95 "HgN/A
6:00 PM84 °FPartly sunny.No wind70%29.92 "HgN/A
5:00 PM84 °FScattered clouds.13 mph70%29.92 "HgN/A
4:00 PM86 °FPartly sunny.12 mph62%29.92 "HgN/A
3:00 PM86 °FPartly sunny.13 mph66%29.95 "HgN/A
2:00 PM86 °FPartly sunny.13 mph66%29.95 "HgN/A
1:00 PM86 °FPartly sunny.14 mph62%29.98 "HgN/A
12:00 PM86 °FScattered clouds.15 mph66%29.98 "HgN/A
11:00 AM86 °FScattered clouds.15 mph66%30.01 "HgN/A
10:00 AM86 °FScattered clouds.15 mph66%30.01 "HgN/A
9:00 AM86 °FPassing clouds.13 mph62%29.98 "HgN/A
8:00 AM84 °FPassing clouds.13 mph66%29.98 "HgN/A
7:00 AM82 °FScattered clouds.13 mph70%29.98 "HgN/A
6:00 AM81 °FPassing clouds.13 mph74%29.98 "HgN/A
Weather by CustomWeather, © 2015

See weather overviewHow to use our weather pages